User: anonymous   Login
Location: Cornospital
(48.0620°N, 3.3837°W)
Time: 20:07:56
(UTC+00:00)
Language:

ARTHUR-1 - Orbit

View from above orbital plane
View from above orbital plane
View from above satellite
View from above satellite

Ground track
Ground track

The orbit data is extracted from the following two-line orbital elements,

1 48953U 21059CC  22016.41334144  .00002544  00000-0  14037-3 0  9994
2 48953  97.5311 147.8976 0013347 267.9590 163.8731 15.14802300 30966
Epoch (UTC): 16 January 2022 09:55:12
Eccentricity: 0.0013347
inclination: 97.5311°
perigee height: 512 km
apogee height: 531 km
right ascension of ascending node: 147.8976°
argument of perigee: 267.9590°
revolutions per day: 15.14802300
mean anomaly at epoch: 163.8731°
orbit number at epoch: 3096

The dashed part of the orbit path shows where the satellite is in the earth's shadow,  

DLR